Regional Weather Roundup
Issued by NWS

Home | Current Version | Previous Version | Text Only | Print | Product List | Glossary Off
Versions: 1 2 3 4 5 6 7 8 9 10 11 12 13 14 15 16 17 18 19 20 21 22 23 24 25 26 27

000
ASUS45 KGTF 251010
RWRMT
MONTANA HOURLY WEATHER ROUNDUP
NATIONAL WEATHER SERVICE GREAT FALLS MT
400 AM MDT SAT APR 25 2015

NOTE: "FAIR" INDICATES FEW OR NO CLOUDS BELOW 12000 FEET WITH NO
SIGNIFICANT WEATHER AND/OR OBSTRUCTIONS TO VISIBILITY.

MTZ001>007-043-251100-
WEST OF THE DIVIDE

CITY           SKY/WX    TMP DP  RH WIND       PRES   REMARKS
KALISPELL      PTSUNNY   30  25  81 CALM      29.81R
MISSOULA       CLOUDY    34  25  69 CALM      29.84R
BUTTE          CLOUDY    34  25  69 NW6       29.78R WCI  29
DEER LODGE       N/A     36  25  64 N3        29.83R
EUREKA           N/A     34  27  75 CALM      29.82R
HAMILTON         N/A     34  27  75 CALM      29.80S
LIBBY            N/A     28  23  80 CALM      29.84R
$$

MTZ008-052>055-251100-
SOUTHWEST MONTANA

CITY           SKY/WX    TMP DP  RH WIND       PRES   REMARKS
BOZEMAN        MIX PCPN  35  33  92 W5        29.77S
DILLON         LGT SNOW  33  32  96 SW3       29.76S FOG
$$

MTZ009-010-012-014-046-048-049-054-251100-
EAST SLOPES AND CENTRAL MONTANA

CITY           SKY/WX    TMP DP  RH WIND       PRES   REMARKS
CUT BANK       CLOUDY    34  20  56 NW12      29.74S WCI  25
GREAT FALLS    CLOUDY    39  34  82 SW6       29.75S
MALMSTROM AFB  CLOUDY    42  33  72 SE2       29.76R
HELENA         CLOUDY    43  24  47 W10       29.76R
$$

MTZ011-013-016-021-045-047-050-051-251100-
NORTH CENTRAL MONTANA

CITY           SKY/WX    TMP DP  RH WIND       PRES   REMARKS
HAVRE          CLOUDY    48  23  37 NW6       29.72R
LEWISTOWN      LGT SNOW  34  32  92 SW10      29.74R FOG     WCI  26
CHINOOK          N/A     46  34  61 W6        29.71R
FORT BENTON      N/A     43  30  61 W7        29.76R
$$

MTZ017>020-022>042-056>058-061-062-251100-
EASTERN PLAINS

CITY           SKY/WX    TMP DP  RH WIND       PRES   REMARKS
BAKER          PTCLDY    43  36  76 SE15      29.66S
BILLINGS       LGT RAIN  42  39  89 NW17      29.66R
GLASGOW        MOCLDY    50  35  56 NW9       29.60S
JORDAN           N/A     49  36  61 N12       29.60S
LIVINGSTON     MIX PCPN  37  32  82 SW13      29.72R WCI  29
MILES CITY     MOCLDY    48  37  65 S8        29.59R
SIDNEY         CLOUDY    50  37  62 CALM      29.67R
WOLF POINT     CLOUDY    52  39  61 NE6       29.61S
BIG TIMBER       N/A     37  34  87 SW16      29.72R WCI  28
FORSYTH          N/A     45  45 100 CALM      29.58R
PLENTYWOOD       N/A     46  37  71 E10       29.67S
POPLAR           N/A     52  37  58 NE6       29.63S
$$

REGIONAL REPORTS...DAKOTAS

CITY           SKY/WX    TMP DP  RH WIND       PRES   REMARKS
WILLISTON      CLOUDY    47  39  74 E7        29.69R
MINOT          CLEAR     36  34  92 E7        29.77R FOG     WCI  30
DICKINSON      FOG       42  40  92 SE18      29.69S VSB 1/4
BEACH          FAIR      43  43 100 SE10      29.68R
CROSBY         PTSUNNY   45  43  93 SE12      29.73R
WATFORD CITY   PTSUNNY   43  39  87 E13       29.68S
BISMARCK       CLOUDY    44  41  89 E10       29.75R
GRAND FORKS    CLOUDY    44  33  65 E7        29.84R
FARGO          CLOUDY    43  36  76 E9        29.80R
BUFFALO SD       N/A     42  39  89 SE7       29.62R
RAPID CITY     PTCLDY    42  37  82 N12       29.65S
$$

REGIONAL REPORTS...WYOMING/IDAHO/WASHINGTON

CITY           SKY/WX    TMP DP  RH WIND       PRES   REMARKS
GILLETTE       PTCLDY    45  40  82 S9        29.62S
SHERIDAN       CLOUDY    47  38  71 N10       29.60R
BUFFALO WY     CLOUDY    50  36  58 S7        29.61R
CODY           CLOUDY    43  39  87 N14G22    29.65S
YELLOWSTONE LA   N/A     31  28  89 VRB5      29.73S
IDAHO FALLS    CLOUDY    39  34  82 W7        29.77R
SALMON         CLOUDY    36  28  75 CALM      29.79S
BOISE          MOCLDY    45  31  58 W7        29.78S
SPOKANE        MOCLDY    38  29  70 S9        29.80R WCI  31
$$

REGIONAL REPORTS...ALBERTA

CITY           SKY/WX    TMP DP  RH WIND       PRES   REMARKS
EDMONTON       CLOUDY    36  25  64 E12       29.86S WCI  27
CALGARY        CLOUDY    34  32  93 N13       29.79S FOG     WCI  25
LETHBRIDGE     PTCLDY    34  32  93 W14G21    29.76R WCI  24
MEDICINE HAT   PTCLDY    41  37  87 SW7       29.70R
$$

REGIONAL REPORTS...SASKATCHEWAN

CITY           SKY/WX    TMP DP  RH WIND       PRES   REMARKS
SWIFT CURRENT  CLOUDY    37  34  87 NE10      29.69R WCI  30
REGINA         CLOUDY    46  41  81 E13       29.71R
SASKATOON      CLOUDY    28  27  93 NE18G24   29.86R WCI  16
$$



USA.gov is the U.S. government's official web portal to all federal, state and local government web resources and services.